Time,TemperatureF,DewpointF,PressureIn,WindDirection,WindDirectionDegrees,WindSpeedMPH,WindSpeedGustMPH,Humidity,HourlyPrecipIn,Conditions,Clouds,dailyrainin,SoftwareType,DateUTC
2013-09-18 00:01:00,85.6,51.6,27.02,SSW,201,0.0,0.0,31,0.00,,---,0.00,VWS V13.01,2013-09-18 07:01:00,
2013-09-18 00:06:00,85.5,51.4,27.02,SSW,201,0.0,0.0,31,0.00,,---,0.00,VWS V13.01,2013-09-18 07:06:00,
2013-09-18 00:11:00,85.1,51.1,27.02,SSW,201,0.0,0.0,31,0.00,,---,0.00,VWS V13.01,2013-09-18 07:11:00,
2013-09-18 00:17:00,84.7,50.8,27.02,SSW,201,0.0,0.0,31,0.00,,---,0.00,VWS V13.01,2013-09-18 07:17:00,
2013-09-18 00:22:00,84.2,50.3,27.02,SSW,201,0.0,0.0,31,0.00,,---,0.00,VWS V13.01,2013-09-18 07:22:00,
2013-09-18 00:27:00,83.8,50.9,27.02,SSW,201,0.0,0.0,32,0.00,,---,0.00,VWS V13.01,2013-09-18 07:27:00,
2013-09-18 00:32:00,83.5,51.4,27.02,SSW,201,0.0,0.0,33,0.00,,---,0.00,VWS V13.01,2013-09-18 07:32:00,
2013-09-18 00:37:00,82.9,50.9,27.02,SSW,201,0.0,0.0,33,0.00,,---,0.00,VWS V13.01,2013-09-18 07:37:00,
2013-09-18 00:42:00,82.6,50.6,27.02,SSW,201,0.0,0.0,33,0.00,,---,0.00,VWS V13.01,2013-09-18 07:42:00,
2013-09-18 00:47:00,82.4,50.4,27.02,SSW,201,0.0,0.0,33,0.00,,---,0.00,VWS V13.01,2013-09-18 07:47:00,
2013-09-18 00:52:00,82.4,49.6,27.02,SSW,201,0.0,0.0,32,0.00,,---,0.00,VWS V13.01,2013-09-18 07:52:00,
2013-09-18 00:58:00,82.4,49.6,27.02,SSW,201,0.0,0.0,32,0.00,,---,0.00,VWS V13.01,2013-09-18 07:58:00,
2013-09-18 01:03:00,82.4,49.6,27.02,SSW,201,0.0,0.0,32,0.00,,---,0.00,VWS V13.01,2013-09-18 08:03:00,
2013-09-18 01:08:00,82.0,49.3,27.02,SSW,201,0.0,0.0,32,0.00,,---,0.00,VWS V13.01,2013-09-18 08:08:00,
2013-09-18 01:13:00,81.9,49.1,27.02,SSW,201,0.0,0.0,32,0.00,,---,0.00,VWS V13.01,2013-09-18 08:13:00,
2013-09-18 01:19:00,81.7,49.0,27.02,SSW,201,0.0,0.0,32,0.00,,---,0.00,VWS V13.01,2013-09-18 08:19:00,
2013-09-18 01:24:00,81.5,48.8,27.02,SSW,201,0.0,0.0,32,0.00,,---,0.00,VWS V13.01,2013-09-18 08:24:00,
2013-09-18 01:29:00,81.5,48.8,27.02,SSW,201,0.0,0.0,32,0.00,,---,0.00,VWS V13.01,2013-09-18 08:29:00,
2013-09-18 01:34:00,81.1,48.5,27.02,SSW,201,0.0,0.0,32,0.00,,---,0.00,VWS V13.01,2013-09-18 08:34:00,
2013-09-18 01:40:00,81.1,48.5,27.02,SSW,201,0.0,0.0,32,0.00,,---,0.00,VWS V13.01,2013-09-18 08:40:00,
2013-09-18 01:45:00,80.8,48.2,27.02,SSW,201,0.0,0.0,32,0.00,,---,0.00,VWS V13.01,2013-09-18 08:45:00,
2013-09-18 01:51:00,80.6,48.0,27.02,SSW,201,0.0,0.0,32,0.00,,---,0.00,VWS V13.01,2013-09-18 08:51:00,
2013-09-18 01:56:00,80.6,48.0,27.02,SSW,201,0.0,0.0,32,0.00,,---,0.00,VWS V13.01,2013-09-18 08:56:00,
2013-09-18 02:01:00,80.4,47.9,27.02,SSW,201,0.0,0.0,32,0.00,,---,0.00,VWS V13.01,2013-09-18 09:01:00,
2013-09-18 02:06:00,80.1,47.6,27.02,SSW,201,0.0,0.0,32,0.00,,---,0.00,VWS V13.01,2013-09-18 09:06:00,
2013-09-18 02:12:00,79.7,48.1,27.02,SSW,201,0.0,0.0,33,0.00,,---,0.00,VWS V13.01,2013-09-18 09:12:00,
2013-09-18 02:17:00,79.5,47.1,27.02,SSW,201,0.0,0.0,32,0.00,,---,0.00,VWS V13.01,2013-09-18 09:17:00,
2013-09-18 02:22:00,79.5,47.1,27.02,SSW,201,0.0,0.0,32,0.00,,---,0.00,VWS V13.01,2013-09-18 09:22:00,
2013-09-18 02:27:00,79.5,47.1,27.02,SSW,201,0.0,0.0,32,0.00,,---,0.00,VWS V13.01,2013-09-18 09:27:00,
2013-09-18 02:32:00,79.3,47.0,27.02,SSW,201,0.0,0.0,32,0.00,,---,0.00,VWS V13.01,2013-09-18 09:32:00,
2013-09-18 02:37:00,79.3,47.0,27.02,SSW,201,0.0,0.0,32,0.00,,---,0.00,VWS V13.01,2013-09-18 09:37:00,
2013-09-18 02:43:00,79.2,46.8,27.02,SSW,201,0.0,0.0,32,0.00,,---,0.00,VWS V13.01,2013-09-18 09:43:00,
2013-09-18 02:48:00,79.0,46.6,27.02,SSW,201,0.0,0.0,32,0.00,,---,0.00,VWS V13.01,2013-09-18 09:48:00,
2013-09-18 02:53:00,79.0,46.6,27.02,SSW,201,0.0,0.0,32,0.00,,---,0.00,VWS V13.01,2013-09-18 09:53:00,
2013-09-18 02:58:00,78.8,47.3,27.02,SSW,201,0.0,0.0,33,0.00,,---,0.00,VWS V13.01,2013-09-18 09:58:00,
2013-09-18 03:03:00,78.8,47.3,27.02,SSW,201,0.0,0.0,33,0.00,,---,0.00,VWS V13.01,2013-09-18 10:03:00,
2013-09-18 03:08:00,78.8,47.3,27.02,SSW,201,0.0,0.0,33,0.00,,---,0.00,VWS V13.01,2013-09-18 10:08:00,
2013-09-18 03:14:00,78.4,47.8,27.02,SSW,201,0.0,0.0,34,0.00,,---,0.00,VWS V13.01,2013-09-18 10:14:00,
2013-09-18 03:19:00,78.3,47.6,27.02,SSW,201,0.0,0.0,34,0.00,,---,0.00,VWS V13.01,2013-09-18 10:19:00,
2013-09-18 03:24:00,78.1,48.2,26.99,SSE,153,0.0,0.0,35,0.00,,---,0.00,VWS V13.01,2013-09-18 10:24:00,
2013-09-18 03:29:00,78.1,49.0,26.99,SSE,153,0.0,0.0,36,0.00,,---,0.00,VWS V13.01,2013-09-18 10:29:00,
2013-09-18 03:34:00,77.9,49.6,26.99,SSE,151,0.0,0.0,37,0.00,,---,0.00,VWS V13.01,2013-09-18 10:34:00,
2013-09-18 03:39:00,78.1,50.4,26.99,ESE,117,0.0,0.0,38,0.00,,---,0.00,VWS V13.01,2013-09-18 10:39:00,
2013-09-18 03:45:00,78.1,51.8,26.99,East,96,0.0,0.0,40,0.00,,---,0.00,VWS V13.01,2013-09-18 10:45:00,
2013-09-18 03:50:00,78.1,52.5,26.99,East,93,0.0,0.0,41,0.00,,---,0.00,VWS V13.01,2013-09-18 10:50:00,
2013-09-18 03:55:00,78.1,53.2,26.99,East,92,0.0,0.0,42,0.00,,---,0.00,VWS V13.01,2013-09-18 10:55:00,
2013-09-18 04:00:00,77.9,53.6,26.99,ESE,103,0.0,0.0,43,0.00,,---,0.00,VWS V13.01,2013-09-18 11:00:00,
2013-09-18 04:06:00,77.9,54.3,26.99,ESE,122,0.0,0.0,44,0.00,,---,0.00,VWS V13.01,2013-09-18 11:06:00,
2013-09-18 04:11:00,77.9,54.3,26.99,SE,133,0.0,0.0,44,0.00,,---,0.00,VWS V13.01,2013-09-18 11:11:00,
2013-09-18 04:17:00,77.7,54.7,26.99,SE,132,0.0,0.0,45,0.00,,---,0.00,VWS V13.01,2013-09-18 11:17:00,
2013-09-18 04:22:00,77.5,54.5,26.99,SE,129,0.0,0.0,45,0.00,,---,0.00,VWS V13.01,2013-09-18 11:22:00,
2013-09-18 04:27:00,77.5,54.5,26.99,SE,130,0.0,0.0,45,0.00,,---,0.00,VWS V13.01,2013-09-18 11:27:00,
2013-09-18 04:32:00,77.4,55.0,26.99,SE,129,0.0,0.0,46,0.00,,---,0.00,VWS V13.01,2013-09-18 11:32:00,
2013-09-18 04:37:00,77.0,54.7,26.99,SE,129,0.0,0.0,46,0.00,,---,0.00,VWS V13.01,2013-09-18 11:37:00,
2013-09-18 04:42:00,76.5,54.8,26.99,SE,129,0.0,0.0,47,0.00,,---,0.00,VWS V13.01,2013-09-18 11:42:00,
2013-09-18 04:47:00,76.1,54.4,26.99,SE,129,0.0,0.0,47,0.00,,---,0.00,VWS V13.01,2013-09-18 11:47:00,
2013-09-18 04:53:00,75.7,54.7,27.02,SE,129,0.0,0.0,48,0.00,,---,0.00,VWS V13.01,2013-09-18 11:53:00,
2013-09-18 04:58:00,75.4,54.9,27.02,SE,129,0.0,0.0,49,0.00,,---,0.00,VWS V13.01,2013-09-18 11:58:00,
2013-09-18 05:04:00,75.2,54.8,27.02,SE,129,0.0,0.0,49,0.00,,---,0.00,VWS V13.01,2013-09-18 12:04:00,
2013-09-18 05:09:00,75.2,55.3,27.02,SE,129,0.0,0.0,50,0.00,,---,0.00,VWS V13.01,2013-09-18 12:09:00,
2013-09-18 05:14:00,75.0,55.7,27.02,SE,126,0.0,0.0,51,0.00,,---,0.00,VWS V13.01,2013-09-18 12:14:00,
2013-09-18 05:20:00,74.8,55.5,27.02,SE,126,0.0,0.0,51,0.00,,---,0.00,VWS V13.01,2013-09-18 12:20:00,
2013-09-18 05:24:00,74.7,55.3,27.02,SE,126,0.0,0.0,51,0.00,,---,0.00,VWS V13.01,2013-09-18 12:24:00,
2013-09-18 05:30:00,74.7,55.9,27.02,SE,126,0.0,0.0,52,0.00,,---,0.00,VWS V13.01,2013-09-18 12:30:00,
2013-09-18 05:35:00,74.5,55.7,27.02,SE,126,0.0,0.0,52,0.00,,---,0.00,VWS V13.01,2013-09-18 12:35:00,
2013-09-18 05:41:00,74.3,55.6,27.02,SE,126,0.0,0.0,52,0.00,,---,0.00,VWS V13.01,2013-09-18 12:41:00,
2013-09-18 05:46:00,74.3,56.1,27.02,SE,126,0.0,0.0,53,0.00,,---,0.00,VWS V13.01,2013-09-18 12:46:00,
2013-09-18 05:51:00,74.3,56.1,27.02,ESE,121,0.0,0.0,53,0.00,,---,0.00,VWS V13.01,2013-09-18 12:51:00,
2013-09-18 05:56:00,74.5,56.2,27.02,ESE,114,0.0,2.2,53,0.00,,---,0.00,VWS V13.01,2013-09-18 12:56:00,
2013-09-18 06:02:00,74.7,56.9,27.02,ESE,105,0.0,4.0,54,0.00,,---,0.00,VWS V13.01,2013-09-18 13:02:00,
2013-09-18 06:07:00,74.7,56.9,27.02,ESE,109,0.0,2.7,54,0.00,,---,0.00,VWS V13.01,2013-09-18 13:07:00,
2013-09-18 06:12:00,74.7,56.9,27.02,ESE,110,0.0,0.0,54,0.00,,---,0.00,VWS V13.01,2013-09-18 13:12:00,
2013-09-18 06:18:00,74.7,56.9,27.02,ESE,110,0.0,0.0,54,0.00,,---,0.00,VWS V13.01,2013-09-18 13:18:00,
2013-09-18 06:23:00,74.7,56.9,27.02,ESE,107,0.0,0.0,54,0.00,,---,0.00,VWS V13.01,2013-09-18 13:23:00,
2013-09-18 06:29:00,74.5,57.3,27.02,ESE,107,0.0,0.0,55,0.00,,---,0.00,VWS V13.01,2013-09-18 13:29:00,
2013-09-18 06:34:00,74.5,57.8,27.02,ESE,107,0.0,0.0,56,0.00,,---,0.00,VWS V13.01,2013-09-18 13:34:00,
2013-09-18 06:39:00,74.5,57.8,27.02,ESE,106,0.0,0.0,56,0.00,,---,0.00,VWS V13.01,2013-09-18 13:39:00,
2013-09-18 06:44:00,74.7,57.9,27.02,ESE,105,0.0,0.0,56,0.00,,---,0.00,VWS V13.01,2013-09-18 13:44:00,
2013-09-18 06:49:00,75.0,58.3,27.02,East,101,3.6,3.6,56,0.00,,---,0.00,VWS V13.01,2013-09-18 13:49:00,
2013-09-18 06:54:00,75.4,58.1,27.02,East,93,3.6,6.3,55,0.00,,---,0.00,VWS V13.01,2013-09-18 13:54:00,
2013-09-18 07:00:00,75.7,58.4,27.02,East,96,4.9,4.9,55,0.00,,---,0.00,VWS V13.01,2013-09-18 14:00:00,
2013-09-18 07:05:00,76.1,58.8,27.05,ESE,107,5.4,7.6,55,0.00,,---,0.00,VWS V13.01,2013-09-18 14:05:00,
2013-09-18 07:10:00,76.5,58.6,27.05,ESE,116,6.3,6.3,54,0.00,,---,0.00,VWS V13.01,2013-09-18 14:10:00,
2013-09-18 07:15:00,77.0,58.6,27.05,East,91,6.3,7.6,53,0.00,,---,0.00,VWS V13.01,2013-09-18 14:15:00,
2013-09-18 07:20:00,77.4,58.9,27.05,East,88,3.6,5.4,53,0.00,,---,0.00,VWS V13.01,2013-09-18 14:20:00,
2013-09-18 07:26:00,77.9,58.9,27.05,East,90,5.8,5.8,52,0.00,,---,0.00,VWS V13.01,2013-09-18 14:26:00,
2013-09-18 07:31:00,78.3,59.2,27.05,East,98,0.0,4.0,52,0.00,,---,0.00,VWS V13.01,2013-09-18 14:31:00,
2013-09-18 07:37:00,78.8,59.2,27.05,East,95,0.0,2.7,51,0.00,,---,0.00,VWS V13.01,2013-09-18 14:37:00,
2013-09-18 07:42:00,79.2,58.9,27.05,East,84,3.1,4.0,50,0.00,,---,0.00,VWS V13.01,2013-09-18 14:42:00,
2013-09-18 07:47:00,79.5,59.3,27.05,East,86,0.0,0.0,50,0.00,,---,0.00,VWS V13.01,2013-09-18 14:47:00,
2013-09-18 07:52:00,80.1,59.8,27.05,East,85,0.0,0.0,50,0.00,,---,0.00,VWS V13.01,2013-09-18 14:52:00,
2013-09-18 07:58:00,80.6,60.3,27.05,ENE,73,0.0,0.0,50,0.00,,---,0.00,VWS V13.01,2013-09-18 14:58:00,
2013-09-18 08:03:00,81.0,60.0,27.05,ENE,73,0.0,0.0,49,0.00,,---,0.00,VWS V13.01,2013-09-18 15:03:00,
2013-09-18 08:08:00,81.1,60.2,27.05,ENE,73,0.0,0.0,49,0.00,,---,0.00,VWS V13.01,2013-09-18 15:08:00,
2013-09-18 08:14:00,81.5,59.9,27.05,ENE,73,0.0,0.0,48,0.00,,---,0.00,VWS V13.01,2013-09-18 15:14:00,
2013-09-18 08:19:00,82.2,60.6,27.05,ENE,73,0.0,0.0,48,0.00,,---,0.00,VWS V13.01,2013-09-18 15:19:00,
2013-09-18 08:24:00,82.8,60.5,27.05,ENE,73,0.0,0.0,47,0.00,,---,0.00,VWS V13.01,2013-09-18 15:24:00,
2013-09-18 08:30:00,83.1,60.2,27.05,ENE,73,0.0,0.0,46,0.00,,---,0.00,VWS V13.01,2013-09-18 15:30:00,
2013-09-18 08:35:00,83.7,60.1,27.05,ENE,73,0.0,0.0,45,0.00,,---,0.00,VWS V13.01,2013-09-18 15:35:00,
2013-09-18 08:40:00,84.2,58.6,27.05,ENE,69,0.0,0.0,42,0.00,,---,0.00,VWS V13.01,2013-09-18 15:40:00,
2013-09-18 08:46:00,84.6,59.0,27.05,NE,39,0.0,2.7,42,0.00,,---,0.00,VWS V13.01,2013-09-18 15:46:00,
2013-09-18 08:51:00,85.1,58.8,27.05,NE,42,0.0,0.0,41,0.00,,---,0.00,VWS V13.01,2013-09-18 15:51:00,
2013-09-18 08:57:00,85.6,59.9,27.05,NE,44,0.0,0.0,42,0.00,,---,0.00,VWS V13.01,2013-09-18 15:57:00,
2013-09-18 09:02:00,86.2,59.0,27.05,NNE,16,2.7,3.6,40,0.00,,---,0.00,VWS V13.01,2013-09-18 16:02:00,
2013-09-18 09:07:00,86.4,59.2,27.05,North,7,0.0,0.0,40,0.00,,---,0.00,VWS V13.01,2013-09-18 16:07:00,
2013-09-18 09:12:00,86.7,58.8,27.05,ENE,66,3.1,5.8,39,0.00,,---,0.00,VWS V13.01,2013-09-18 16:12:00,
2013-09-18 09:18:00,87.3,59.3,27.05,NE,44,0.0,0.0,39,0.00,,---,0.00,VWS V13.01,2013-09-18 16:18:00,
2013-09-18 09:23:00,87.6,59.6,27.05,NE,51,0.0,0.0,39,0.00,,---,0.00,VWS V13.01,2013-09-18 16:23:00,
2013-09-18 09:28:00,88.2,56.3,27.05,SE,146,0.0,3.1,34,0.00,,---,0.00,VWS V13.01,2013-09-18 16:28:00,
2013-09-18 09:33:00,88.7,55.1,27.05,East,97,0.0,3.1,32,0.00,,---,0.00,VWS V13.01,2013-09-18 16:33:00,
2013-09-18 09:38:00,89.1,54.5,27.05,South,186,5.8,5.8,31,0.00,,---,0.00,VWS V13.01,2013-09-18 16:38:00,
2013-09-18 09:44:00,89.6,54.1,27.05,SSE,147,4.0,6.3,30,0.00,,---,0.00,VWS V13.01,2013-09-18 16:44:00,
2013-09-18 09:49:00,90.0,53.5,27.05,ESE,120,0.0,4.0,29,0.00,,---,0.00,VWS V13.01,2013-09-18 16:49:00,
2013-09-18 09:55:00,90.1,53.6,27.05,ESE,110,2.7,5.8,29,0.00,,---,0.00,VWS V13.01,2013-09-18 16:55:00,
2013-09-18 10:00:00,90.7,53.1,27.05,ESE,120,3.6,5.8,28,0.00,,---,0.00,VWS V13.01,2013-09-18 17:00:00,
2013-09-18 10:05:00,91.2,52.6,27.05,ENE,74,2.7,4.9,27,0.00,,---,0.00,VWS V13.01,2013-09-18 17:05:00,
2013-09-18 10:11:00,91.6,51.9,27.05,SSW,198,6.3,6.3,26,0.00,,---,0.00,VWS V13.01,2013-09-18 17:11:00,
2013-09-18 10:16:00,92.1,49.0,27.05,South,189,0.0,5.4,23,0.00,,---,0.00,VWS V13.01,2013-09-18 17:16:00,
2013-09-18 10:22:00,92.1,50.2,27.05,SSE,163,0.0,2.2,24,0.00,,---,0.00,VWS V13.01,2013-09-18 17:22:00,
2013-09-18 10:27:00,92.5,50.5,27.05,SSW,204,4.0,5.8,24,0.00,,---,0.00,VWS V13.01,2013-09-18 17:27:00,
2013-09-18 10:32:00,92.8,49.6,27.05,South,187,0.0,4.0,23,0.00,,---,0.00,VWS V13.01,2013-09-18 17:32:00,
2013-09-18 10:38:00,92.5,49.3,27.05,South,187,5.8,6.3,23,0.00,,---,0.00,VWS V13.01,2013-09-18 17:38:00,
2013-09-18 10:43:00,92.8,50.8,27.05,South,190,0.0,4.9,24,0.00,,---,0.00,VWS V13.01,2013-09-18 17:43:00,
2013-09-18 10:48:00,93.0,48.6,27.05,West,281,5.8,5.8,22,0.00,,---,0.00,VWS V13.01,2013-09-18 17:48:00,
2013-09-18 10:54:00,92.8,49.6,27.05,SSW,199,0.0,0.0,23,0.00,,---,0.00,VWS V13.01,2013-09-18 17:54:00,
2013-09-18 10:59:00,93.2,49.9,27.05,SSW,197,3.1,6.3,23,0.00,,---,0.00,VWS V13.01,2013-09-18 17:59:00,
2013-09-18 11:04:00,93.6,49.0,27.05,South,180,0.0,3.1,22,0.00,,---,0.00,VWS V13.01,2013-09-18 18:04:00,
2013-09-18 11:09:00,93.6,49.0,27.05,WNW,298,0.0,5.4,22,0.00,,---,0.00,VWS V13.01,2013-09-18 18:09:00,
2013-09-18 11:15:00,93.7,48.0,27.05,South,190,8.1,8.1,21,0.00,,---,0.00,VWS V13.01,2013-09-18 18:15:00,
2013-09-18 11:20:00,94.3,49.6,27.05,SSW,193,0.0,3.1,22,0.00,,---,0.00,VWS V13.01,2013-09-18 18:20:00,
2013-09-18 11:25:00,94.1,50.7,27.05,SSW,196,3.6,3.6,23,0.00,,---,0.00,VWS V13.01,2013-09-18 18:25:00,
2013-09-18 11:31:00,94.3,48.4,27.05,West,259,0.0,0.0,21,0.00,,---,0.00,VWS V13.01,2013-09-18 18:31:00,
2013-09-18 11:36:00,94.3,47.1,27.05,WNW,288,0.0,0.0,20,0.00,,---,0.00,VWS V13.01,2013-09-18 18:36:00,
2013-09-18 11:42:00,94.5,48.5,27.05,SSW,199,4.0,6.3,21,0.00,,---,0.00,VWS V13.01,2013-09-18 18:42:00,
2013-09-18 11:47:00,94.8,48.8,27.05,SW,215,4.0,6.3,21,0.00,,---,0.00,VWS V13.01,2013-09-18 18:47:00,
2013-09-18 11:52:00,95.4,50.5,27.05,South,176,0.0,4.0,22,0.00,,---,0.00,VWS V13.01,2013-09-18 18:52:00,
2013-09-18 11:57:00,95.7,49.6,27.05,SW,226,0.0,4.0,21,0.00,,---,0.00,VWS V13.01,2013-09-18 18:57:00,
2013-09-18 12:02:00,95.4,48.0,27.05,NW,320,0.0,0.0,20,0.00,,---,0.00,VWS V13.01,2013-09-18 19:02:00,
2013-09-18 12:08:00,95.5,48.1,27.02,NNW,345,0.0,0.0,20,0.00,,---,0.00,VWS V13.01,2013-09-18 19:08:00,
2013-09-18 12:13:00,95.9,47.0,27.02,SW,230,6.3,6.3,19,0.00,,---,0.00,VWS V13.01,2013-09-18 19:13:00,
2013-09-18 12:18:00,96.4,48.9,27.02,SE,130,0.0,4.0,20,0.00,,---,0.00,VWS V13.01,2013-09-18 19:18:00,
2013-09-18 12:24:00,96.8,47.8,27.02,SE,127,0.0,0.0,19,0.00,,---,0.00,VWS V13.01,2013-09-18 19:24:00,
2013-09-18 12:29:00,97.0,47.9,27.02,SSW,210,5.4,5.8,19,0.00,,---,0.00,VWS V13.01,2013-09-18 19:29:00,
2013-09-18 12:34:00,97.2,46.6,27.02,WSW,246,0.0,6.3,18,0.00,,---,0.00,VWS V13.01,2013-09-18 19:34:00,
2013-09-18 12:40:00,97.3,45.3,27.02,WNW,302,3.1,4.9,17,0.00,,---,0.00,VWS V13.01,2013-09-18 19:40:00,
2013-09-18 12:45:00,97.0,45.0,27.02,North,359,4.9,4.9,17,0.00,,---,0.00,VWS V13.01,2013-09-18 19:45:00,
2013-09-18 12:50:00,96.8,44.8,27.02,SW,218,3.6,7.2,17,0.00,,---,0.00,VWS V13.01,2013-09-18 19:50:00,
2013-09-18 12:56:00,97.3,45.3,27.02,West,259,2.7,2.7,17,0.00,,---,0.00,VWS V13.01,2013-09-18 19:56:00,
2013-09-18 13:01:00,97.7,45.6,27.02,SSW,212,3.6,6.7,17,0.00,,---,0.00,VWS V13.01,2013-09-18 20:01:00,
2013-09-18 13:06:00,97.9,45.7,27.02,SE,138,6.3,6.3,17,0.00,,---,0.00,VWS V13.01,2013-09-18 20:06:00,
2013-09-18 13:12:00,98.1,45.9,27.02,WSW,258,2.2,6.3,17,0.00,,---,0.00,VWS V13.01,2013-09-18 20:12:00,
2013-09-18 13:17:00,97.7,45.6,27.02,SW,228,3.1,4.9,17,0.00,,---,0.00,VWS V13.01,2013-09-18 20:17:00,
2013-09-18 13:22:00,97.9,44.1,26.99,WNW,285,2.2,7.2,16,0.00,,---,0.00,VWS V13.01,2013-09-18 20:22:00,
2013-09-18 13:27:00,97.9,45.7,26.99,SSW,199,0.0,0.0,17,0.00,,---,0.00,VWS V13.01,2013-09-18 20:27:00,
2013-09-18 13:32:00,98.2,46.0,26.99,SSW,199,3.6,5.8,17,0.00,,---,0.00,VWS V13.01,2013-09-18 20:32:00,
2013-09-18 13:37:00,98.2,44.4,26.99,WNW,300,5.8,9.6,16,0.00,,---,0.00,VWS V13.01,2013-09-18 20:37:00,
2013-09-18 13:43:00,98.4,44.5,26.99,South,188,0.0,0.0,16,0.00,,---,0.00,VWS V13.01,2013-09-18 20:43:00,
2013-09-18 13:48:00,98.4,44.5,26.99,WNW,291,6.3,6.3,16,0.00,,---,0.00,VWS V13.01,2013-09-18 20:48:00,
2013-09-18 13:53:00,98.6,43.0,26.99,West,266,7.6,8.1,15,0.00,,---,0.00,VWS V13.01,2013-09-18 20:53:00,
2013-09-18 13:59:00,99.0,43.3,26.99,West,278,5.8,6.3,15,0.00,,---,0.00,VWS V13.01,2013-09-18 20:59:00,
2013-09-18 14:04:00,98.4,39.2,26.99,WNW,292,3.6,6.3,13,0.00,,---,0.00,VWS V13.01,2013-09-18 21:04:00,
2013-09-18 14:09:00,98.8,44.8,26.99,SSE,155,5.4,8.3,16,0.00,,---,0.00,VWS V13.01,2013-09-18 21:09:00,
2013-09-18 14:14:00,98.8,39.5,26.99,East,79,2.7,5.4,13,0.00,,---,0.00,VWS V13.01,2013-09-18 21:14:00,
2013-09-18 14:19:00,98.6,32.7,26.99,West,259,8.7,11.0,10,0.00,,---,0.00,VWS V13.01,2013-09-18 21:19:00,
2013-09-18 14:25:00,98.4,27.1,26.99,West,260,0.0,2.7,8,0.00,,---,0.00,VWS V13.01,2013-09-18 21:25:00,
2013-09-18 14:30:00,98.4,39.2,26.99,South,182,0.0,4.0,13,0.00,,---,0.00,VWS V13.01,2013-09-18 21:30:00,
2013-09-18 14:35:00,98.6,27.2,26.96,SSW,194,3.1,5.8,8,0.00,,---,0.00,VWS V13.01,2013-09-18 21:35:00,
2013-09-18 14:40:00,99.0,16.4,26.96,SW,235,0.0,5.4,5,0.00,,---,0.00,VWS V13.01,2013-09-18 21:40:00,
2013-09-18 14:46:00,98.8,16.2,26.96,WSW,258,5.8,5.8,5,0.00,,---,0.00,VWS V13.01,2013-09-18 21:46:00,
2013-09-18 14:51:00,98.6,16.1,26.96,NW,305,0.0,0.0,5,0.00,,---,0.00,VWS V13.01,2013-09-18 21:51:00,
2013-09-18 14:57:00,98.6,4.7,26.96,WSW,246,3.6,8.3,3,0.00,,---,0.00,VWS V13.01,2013-09-18 21:57:00,
2013-09-18 15:02:00,98.6,4.7,26.96,WSW,254,5.4,5.8,3,0.00,,---,0.00,VWS V13.01,2013-09-18 22:02:00,
2013-09-18 15:07:00,98.6,-3.9,26.96,SW,230,5.8,8.1,2,0.00,,---,0.00,VWS V13.01,2013-09-18 22:07:00,
2013-09-18 15:13:00,98.6,-3.9,26.96,West,274,0.0,0.0,2,0.00,,---,0.00,VWS V13.01,2013-09-18 22:13:00,
2013-09-18 15:18:00,98.6,4.7,26.96,South,177,2.7,7.6,3,0.00,,---,0.00,VWS V13.01,2013-09-18 22:18:00,
2013-09-18 15:23:00,99.0,-3.7,26.96,SSE,152,5.8,8.7,2,0.00,,---,0.00,VWS V13.01,2013-09-18 22:23:00,
2013-09-18 15:28:00,99.0,4.9,26.96,South,179,0.0,6.3,3,0.00,,---,0.00,VWS V13.01,2013-09-18 22:28:00,
2013-09-18 15:34:00,98.6,16.1,26.96,ESE,108,0.0,0.0,5,0.00,,---,0.00,VWS V13.01,2013-09-18 22:34:00,
2013-09-18 15:39:00,98.6,4.7,26.96,East,95,0.0,3.1,3,0.00,,---,0.00,VWS V13.01,2013-09-18 22:39:00,
2013-09-18 15:44:00,98.4,27.1,26.96,SE,125,0.0,3.1,8,0.00,,---,0.00,VWS V13.01,2013-09-18 22:44:00,
2013-09-18 15:49:00,98.2,4.4,26.96,SSW,196,0.0,0.0,3,0.00,,---,0.00,VWS V13.01,2013-09-18 22:49:00,
2013-09-18 15:55:00,98.1,-4.3,26.96,WSW,253,0.0,7.6,2,0.00,,---,0.00,VWS V13.01,2013-09-18 22:55:00,
2013-09-18 16:00:00,97.9,-4.4,26.96,WSW,258,0.0,0.0,2,0.00,,---,0.00,VWS V13.01,2013-09-18 23:00:00,
2013-09-18 16:05:00,97.9,-4.4,26.93,WNW,288,0.0,4.9,2,0.00,,---,0.00,VWS V13.01,2013-09-18 23:05:00,
2013-09-18 16:11:00,97.9,-4.4,26.93,WSW,253,6.3,8.7,2,0.00,,---,0.00,VWS V13.01,2013-09-18 23:11:00,
2013-09-18 16:16:00,97.9,4.2,26.93,West,281,3.6,7.2,3,0.00,,---,0.00,VWS V13.01,2013-09-18 23:16:00,
2013-09-18 16:21:00,97.9,-4.4,26.93,West,265,6.3,8.3,2,0.00,,---,0.00,VWS V13.01,2013-09-18 23:21:00,
2013-09-18 16:26:00,97.9,-4.4,26.93,West,261,8.1,8.1,2,0.00,,---,0.00,VWS V13.01,2013-09-18 23:26:00,
2013-09-18 16:31:00,97.5,-4.6,26.93,SW,232,3.1,6.3,2,0.00,,---,0.00,VWS V13.01,2013-09-18 23:31:00,
2013-09-18 16:37:00,97.3,3.9,26.93,SW,232,0.0,0.0,3,0.00,,---,0.00,VWS V13.01,2013-09-18 23:37:00,
2013-09-18 16:42:00,97.2,3.7,26.93,SW,228,2.2,10.1,3,0.00,,---,0.00,VWS V13.01,2013-09-18 23:42:00,
2013-09-18 16:47:00,97.2,19.3,26.93,WSW,241,2.2,7.6,6,0.00,,---,0.00,VWS V13.01,2013-09-18 23:47:00,
2013-09-18 16:52:00,97.0,19.2,26.93,WNW,288,0.0,4.0,6,0.00,,---,0.00,VWS V13.01,2013-09-18 23:52:00,
2013-09-18 16:58:00,96.8,19.1,26.93,SW,228,2.2,6.3,6,0.00,,---,0.00,VWS V13.01,2013-09-18 23:58:00,
2013-09-18 17:03:00,96.6,33.6,26.93,SSW,206,3.1,6.3,11,0.00,,---,0.00,VWS V13.01,2013-09-19 00:03:00,
2013-09-18 17:09:00,96.6,28.6,26.93,West,259,5.8,6.3,9,0.00,,---,0.00,VWS V13.01,2013-09-19 00:09:00,
2013-09-18 17:14:00,96.3,33.3,26.93,South,190,2.7,4.0,11,0.00,,---,0.00,VWS V13.01,2013-09-19 00:14:00,
2013-09-18 17:20:00,96.1,33.2,26.93,WSW,238,8.1,8.3,11,0.00,,---,0.00,VWS V13.01,2013-09-19 00:20:00,
2013-09-18 17:25:00,95.9,28.1,26.93,SW,227,6.7,8.1,9,0.00,,---,0.00,VWS V13.01,2013-09-19 00:25:00,
2013-09-18 17:31:00,95.5,32.7,26.93,WSW,238,4.0,6.3,11,0.00,,---,0.00,VWS V13.01,2013-09-19 00:31:00,
2013-09-18 17:36:00,95.4,27.7,26.93,WNW,282,5.4,11.4,9,0.00,,---,0.00,VWS V13.01,2013-09-19 00:36:00,
2013-09-18 17:41:00,95.2,27.5,26.93,WSW,252,5.8,6.3,9,0.00,,---,0.00,VWS V13.01,2013-09-19 00:41:00,
2013-09-18 17:47:00,94.8,27.3,26.93,West,280,8.7,8.7,9,0.00,,---,0.00,VWS V13.01,2013-09-19 00:47:00,
2013-09-18 17:52:00,94.5,27.0,26.93,West,262,5.8,8.7,9,0.00,,---,0.00,VWS V13.01,2013-09-19 00:52:00,
2013-09-18 17:58:00,94.3,26.9,26.93,WSW,242,5.8,6.3,9,0.00,,---,0.00,VWS V13.01,2013-09-19 00:58:00,
2013-09-18 18:03:00,93.7,26.5,26.93,West,279,6.3,7.6,9,0.00,,---,0.00,VWS V13.01,2013-09-19 01:03:00,
2013-09-18 18:08:00,93.6,26.3,26.93,West,267,5.4,8.7,9,0.00,,---,0.00,VWS V13.01,2013-09-19 01:08:00,
2013-09-18 18:13:00,93.4,26.2,26.93,West,267,4.0,5.8,9,0.00,,---,0.00,VWS V13.01,2013-09-19 01:13:00,
2013-09-18 18:18:00,92.8,25.8,26.93,WSW,244,5.8,7.6,9,0.00,,---,0.00,VWS V13.01,2013-09-19 01:18:00,
2013-09-18 18:24:00,92.7,32.7,26.93,West,270,3.1,5.8,12,0.00,,---,0.00,VWS V13.01,2013-09-19 01:24:00,
2013-09-18 18:29:00,92.3,32.4,26.93,SW,233,8.1,8.1,12,0.00,,---,0.00,VWS V13.01,2013-09-19 01:29:00,
2013-09-18 18:34:00,91.9,32.1,26.93,West,262,5.4,6.3,12,0.00,,---,0.00,VWS V13.01,2013-09-19 01:34:00,
2013-09-18 18:39:00,91.8,35.8,26.93,WSW,250,6.3,6.3,14,0.00,,---,0.00,VWS V13.01,2013-09-19 01:39:00,
2013-09-18 18:44:00,91.6,31.9,26.93,WSW,250,5.4,8.3,12,0.00,,---,0.00,VWS V13.01,2013-09-19 01:44:00,
2013-09-18 18:50:00,91.4,31.7,26.93,WSW,250,3.1,6.7,12,0.00,,---,0.00,VWS V13.01,2013-09-19 01:50:00,
2013-09-18 18:55:00,91.2,37.2,26.93,SW,236,4.9,6.3,15,0.00,,---,0.00,VWS V13.01,2013-09-19 01:55:00,
2013-09-18 19:00:00,90.9,36.9,26.93,SW,235,4.0,5.4,15,0.00,,---,0.00,VWS V13.01,2013-09-19 02:00:00,
2013-09-18 19:05:00,90.7,39.9,26.96,WSW,250,0.0,5.8,17,0.00,,---,0.00,VWS V13.01,2013-09-19 02:05:00,
2013-09-18 19:10:00,90.3,41.1,26.96,SW,231,3.1,3.1,18,0.00,,---,0.00,VWS V13.01,2013-09-19 02:10:00,
2013-09-18 19:16:00,90.1,41.0,26.96,WSW,252,0.0,4.0,18,0.00,,---,0.00,VWS V13.01,2013-09-19 02:16:00,
2013-09-18 19:21:00,90.0,40.8,26.96,WSW,248,4.0,4.9,18,0.00,,---,0.00,VWS V13.01,2013-09-19 02:21:00,
2013-09-18 19:26:00,89.8,40.7,26.96,WSW,249,0.0,0.0,18,0.00,,---,0.00,VWS V13.01,2013-09-19 02:26:00,
2013-09-18 19:31:00,89.4,41.8,26.96,SW,233,0.0,0.0,19,0.00,,---,0.00,VWS V13.01,2013-09-19 02:31:00,
2013-09-18 19:37:00,89.2,43.0,26.96,SW,233,0.0,0.0,20,0.00,,---,0.00,VWS V13.01,2013-09-19 02:37:00,
2013-09-18 19:42:00,88.9,42.7,26.96,WSW,244,0.0,0.0,20,0.00,,---,0.00,VWS V13.01,2013-09-19 02:42:00,
2013-09-18 19:47:00,88.7,42.5,26.96,WNW,283,0.0,0.0,20,0.00,,---,0.00,VWS V13.01,2013-09-19 02:47:00,
2013-09-18 19:53:00,88.9,41.3,26.96,NW,317,3.6,8.1,19,0.00,,---,0.00,VWS V13.01,2013-09-19 02:53:00,
2013-09-18 19:58:00,89.2,40.2,26.96,West,272,4.9,8.3,18,0.00,,---,0.00,VWS V13.01,2013-09-19 02:58:00,
2013-09-18 20:03:00,89.1,40.1,26.96,West,264,3.6,4.0,18,0.00,,---,0.00,VWS V13.01,2013-09-19 03:03:00,
2013-09-18 20:09:00,88.9,35.3,26.99,WNW,300,7.6,9.6,15,0.00,,---,0.00,VWS V13.01,2013-09-19 03:09:00,
2013-09-18 20:14:00,88.9,31.7,26.99,WSW,250,3.1,7.6,13,0.00,,---,0.00,VWS V13.01,2013-09-19 03:14:00,
2013-09-18 20:19:00,88.9,25.3,26.99,West,260,4.0,10.1,10,0.00,,---,0.00,VWS V13.01,2013-09-19 03:19:00,
2013-09-18 20:24:00,88.7,25.2,26.99,West,267,4.9,8.1,10,0.00,,---,0.00,VWS V13.01,2013-09-19 03:24:00,
2013-09-18 20:29:00,88.5,25.1,26.99,West,280,5.8,5.8,10,0.00,,---,0.00,VWS V13.01,2013-09-19 03:29:00,
2013-09-18 20:34:00,88.3,24.9,26.99,West,275,3.1,7.2,10,0.00,,---,0.00,VWS V13.01,2013-09-19 03:34:00,
2013-09-18 20:39:00,88.2,24.8,26.99,WNW,300,6.3,7.6,10,0.00,,---,0.00,VWS V13.01,2013-09-19 03:39:00,
2013-09-18 20:45:00,88.2,24.8,26.99,West,272,2.7,7.6,10,0.00,,---,0.00,VWS V13.01,2013-09-19 03:45:00,
2013-09-18 20:50:00,87.8,24.5,26.99,WNW,291,3.1,5.8,10,0.00,,---,0.00,VWS V13.01,2013-09-19 03:50:00,
2013-09-18 20:55:00,87.6,26.7,26.99,West,267,3.6,5.4,11,0.00,,---,0.00,VWS V13.01,2013-09-19 03:55:00,
2013-09-18 21:00:00,87.4,30.6,26.99,West,275,0.0,4.0,13,0.00,,---,0.00,VWS V13.01,2013-09-19 04:00:00,
2013-09-18 21:01:00,87.4,30.6,26.99,West,268,4.0,4.0,13,0.00,,---,0.00,VWS V13.01,2013-09-19 04:01:00,
2013-09-18 21:02:00,87.4,30.6,26.99,West,268,0.0,4.0,13,0.00,,---,0.00,VWS V13.01,2013-09-19 04:02:00,
2013-09-18 21:03:00,87.3,30.5,26.99,West,262,3.6,5.8,13,0.00,,---,0.00,VWS V13.01,2013-09-19 04:03:00,
2013-09-18 21:08:00,87.3,30.5,26.99,West,262,2.2,4.0,13,0.00,,---,0.00,VWS V13.01,2013-09-19 04:08:00,
2013-09-18 21:13:00,87.1,30.3,26.99,SW,231,4.0,4.0,13,0.00,,---,0.00,VWS V13.01,2013-09-19 04:13:00,
2013-09-18 21:18:00,86.9,35.3,26.99,West,276,0.0,2.7,16,0.00,,---,0.00,VWS V13.01,2013-09-19 04:18:00,
2013-09-18 21:24:00,86.5,35.1,27.02,West,268,0.0,0.0,16,0.00,,---,0.00,VWS V13.01,2013-09-19 04:24:00,
2013-09-18 21:29:00,86.0,37.6,27.02,WSW,257,0.0,0.0,18,0.00,,---,0.00,VWS V13.01,2013-09-19 04:29:00,
2013-09-18 21:34:00,85.6,38.7,27.02,WSW,244,0.0,0.0,19,0.00,,---,0.00,VWS V13.01,2013-09-19 04:34:00,
2013-09-18 21:40:00,85.5,38.5,27.02,WSW,244,0.0,0.0,19,0.00,,---,0.00,VWS V13.01,2013-09-19 04:40:00,
2013-09-18 21:45:00,85.1,38.2,27.02,WSW,249,0.0,0.0,19,0.00,,---,0.00,VWS V13.01,2013-09-19 04:45:00,
2013-09-18 21:50:00,85.1,38.2,27.02,WSW,250,0.0,0.0,19,0.00,,---,0.00,VWS V13.01,2013-09-19 04:50:00,
2013-09-18 21:55:00,84.9,38.1,27.02,WSW,256,0.0,0.0,19,0.00,,---,0.00,VWS V13.01,2013-09-19 04:55:00,
2013-09-18 22:00:00,85.3,41.0,27.02,West,279,5.4,7.6,21,0.00,,---,0.00,VWS V13.01,2013-09-19 05:00:00,
2013-09-18 22:05:00,85.3,42.2,27.02,NW,309,4.9,7.6,22,0.00,,---,0.00,VWS V13.01,2013-09-19 05:05:00,
2013-09-18 22:10:00,85.3,43.3,27.02,WNW,301,5.4,7.2,23,0.00,,---,0.00,VWS V13.01,2013-09-19 05:10:00,
2013-09-18 22:16:00,85.3,43.3,27.02,WNW,291,3.6,4.0,23,0.00,,---,0.00,VWS V13.01,2013-09-19 05:16:00,
2013-09-18 22:21:00,85.1,43.2,27.02,WSW,240,5.8,5.8,23,0.00,,---,0.00,VWS V13.01,2013-09-19 05:21:00,
2013-09-18 22:27:00,84.9,44.1,27.02,West,267,0.0,4.9,24,0.00,,---,0.00,VWS V13.01,2013-09-19 05:27:00,
2013-09-18 22:32:00,84.7,44.0,27.02,WSW,253,0.0,3.6,24,0.00,,---,0.00,VWS V13.01,2013-09-19 05:32:00,
2013-09-18 22:37:00,84.4,44.8,27.02,WSW,241,2.7,3.1,25,0.00,,---,0.00,VWS V13.01,2013-09-19 05:37:00,
2013-09-18 22:43:00,83.8,45.3,27.02,WSW,240,0.0,0.0,26,0.00,,---,0.00,VWS V13.01,2013-09-19 05:43:00,
2013-09-18 22:48:00,83.5,46.0,27.02,WSW,240,0.0,0.0,27,0.00,,---,0.00,VWS V13.01,2013-09-19 05:48:00,
2013-09-18 22:53:00,83.1,46.7,27.02,WSW,240,0.0,0.0,28,0.00,,---,0.00,VWS V13.01,2013-09-19 05:53:00,
2013-09-18 22:58:00,82.8,46.4,27.02,WSW,240,0.0,0.0,28,0.00,,---,0.00,VWS V13.01,2013-09-19 05:58:00,
2013-09-18 23:04:00,82.6,47.1,27.02,WSW,240,0.0,0.0,29,0.00,,---,0.00,VWS V13.01,2013-09-19 06:04:00,
2013-09-18 23:09:00,82.2,46.8,27.02,WSW,240,0.0,0.0,29,0.00,,---,0.00,VWS V13.01,2013-09-19 06:09:00,
2013-09-18 23:14:00,82.0,47.6,27.02,WSW,240,0.0,0.0,30,0.00,,---,0.00,VWS V13.01,2013-09-19 06:14:00,
2013-09-18 23:20:00,81.5,47.1,27.02,SE,129,0.0,3.6,30,0.00,,---,0.00,VWS V13.01,2013-09-19 06:20:00,
2013-09-18 23:25:00,81.1,45.9,27.02,SE,129,0.0,0.0,29,0.00,,---,0.00,VWS V13.01,2013-09-19 06:25:00,
2013-09-18 23:30:00,80.6,45.4,27.02,SE,129,0.0,0.0,29,0.00,,---,0.00,VWS V13.01,2013-09-19 06:30:00,
2013-09-18 23:36:00,80.4,46.2,27.02,SE,129,0.0,0.0,30,0.00,,---,0.00,VWS V13.01,2013-09-19 06:36:00,
2013-09-18 23:41:00,80.1,45.9,27.02,SE,129,0.0,2.7,30,0.00,,---,0.00,VWS V13.01,2013-09-19 06:41:00,
2013-09-18 23:46:00,79.7,45.6,27.02,SE,129,0.0,0.0,30,0.00,,---,0.00,VWS V13.01,2013-09-19 06:46:00,
2013-09-18 23:52:00,79.3,45.2,27.02,SE,129,0.0,0.0,30,0.00,,---,0.00,VWS V13.01,2013-09-19 06:52:00,
2013-09-18 23:57:00,79.2,45.1,27.02,ESE,109,0.0,0.0,30,0.00,,---,0.00,VWS V13.01,2013-09-19 06:57:00,